| time (UTC) | temp C | wind direction | speed KPH | gust KPH | rain 1hr cm | rain 24hr cm | rain mn cm | humidity % | barometer mb |
| 20260504044543 | 11 | 20 | 20.9 | 37.0 | 0.00 | 0.00 | 0.00 | 40 | 1012.0 |
| 20260504043044 | 12 | 46 | 20.9 | 38.6 | 0.00 | 0.00 | 0.00 | 39 | 1011.4 |
| 20260504041539 | 12 | 32 | 17.7 | 35.4 | 0.00 | 0.00 | 0.00 | 40 | 1010.8 |
| 20260504040046 | 12 | 13 | 9.7 | 17.7 | 0.00 | 0.00 | 0.00 | 40 | 1010.2 |
| 20260504034544 | 13 | 16 | 12.9 | 20.9 | 0.00 | 0.00 | 0.00 | 39 | 1009.9 |
| 20260504033043 | 14 | 21 | 16.1 | 24.1 | 0.00 | 0.00 | 0.00 | 37 | 1009.4 |
| 20260504031540 | 15 | 43 | 16.1 | 25.7 | 0.00 | 0.00 | 0.00 | 36 | 1009.1 |
| 20260504030045 | 16 | 35 | 16.1 | 35.4 | 0.00 | 0.00 | 0.00 | 35 | 1008.6 |
| 20260504024537 | 16 | 35 | 20.9 | 30.6 | 0.00 | 0.00 | 0.00 | 33 | 1008.4 |
| 20260504023043 | 17 | 28 | 11.3 | 20.9 | 0.00 | 0.00 | 0.00 | 30 | 1008.2 |
| 20260504021538 | 18 | 34 | 14.5 | 33.8 | 0.00 | 0.00 | 0.00 | 27 | 1007.9 |
| 20260504020046 | 20 | 42 | 11.3 | 19.3 | 0.00 | 0.00 | 0.00 | 22 | 1007.7 |
| 20260504014548 | 21 | 34 | 12.9 | 19.3 | 0.00 | 0.00 | 0.00 | 20 | 1007.7 |
| 20260504013048 | 21 | 44 | 9.7 | 17.7 | 0.00 | 0.00 | 0.00 | 20 | 1007.9 |
| 20260504011546 | 21 | 14 | 9.7 | 20.9 | 0.00 | 0.00 | 0.00 | 20 | 1008.0 |
| 20260504010041 | 22 | 10 | 12.9 | 22.5 | 0.00 | 0.00 | 0.00 | 19 | 1008.0 |
| 20260504004539 | 22 | 26 | 12.9 | 22.5 | 0.00 | 0.00 | 0.00 | 19 | 1008.2 |
| 20260504003037 | 22 | 20 | 12.9 | 25.7 | 0.00 | 0.00 | 0.00 | 20 | 1008.3 |
| 20260504001539 | 22 | 352 | 19.3 | 27.4 | 0.00 | 0.00 | 0.00 | 20 | 1008.3 |
| 20260504000047 | 22 | 14 | 16.1 | 22.5 | 0.00 | 0.00 | 0.00 | 19 | 1008.5 |
| 20260503234539 | 23 | 5 | 17.7 | 30.6 | 0.00 | 0.00 | 0.00 | 20 | 1008.7 |
| 20260503233037 | 23 | 352 | 19.3 | 30.6 | 0.00 | 0.00 | 0.00 | 20 | 1008.6 |
| 20260503231537 | 23 | 30 | 16.1 | 29.0 | 0.00 | 0.00 | 0.00 | 19 | 1008.8 |
| 20260503230059 | 22 | 360 | 16.1 | 33.8 | 0.00 | 0.00 | 0.00 | 20 | 1008.7 |
| 20260503224542 | 22 | 317 | 12.9 | 27.4 | 0.00 | 0.00 | 0.00 | 19 | 1009.1 |
| 20260503223039 | 22 | 42 | 19.3 | 33.8 | 0.00 | 0.00 | 0.00 | 21 | 1009.4 |
| 20260503221539 | 22 | 300 | 6.4 | 32.2 | 0.00 | 0.00 | 0.00 | 19 | 1009.3 |
| 20260503220044 | 22 | 310 | 12.9 | 25.7 | 0.00 | 0.00 | 0.00 | 20 | 1009.6 |
| 20260503214543 | 22 | 304 | 17.7 | 30.6 | 0.00 | 0.00 | 0.00 | 19 | 1009.7 |
| 20260503213038 | 22 | 40 | 8.0 | 29.0 | 0.00 | 0.00 | 0.00 | 20 | 1009.9 |
| 20260503211549 | 21 | 276 | 11.3 | 22.5 | 0.00 | 0.00 | 0.00 | 20 | 1010.0 |
| 20260503210037 | 21 | 352 | 12.9 | 27.4 | 0.00 | 0.00 | 0.00 | 20 | 1010.3 |
| 20260503204543 | 21 | 349 | 6.4 | 24.1 | 0.00 | 0.00 | 0.00 | 20 | 1010.7 |
| 20260503203046 | 21 | 5 | 16.1 | 29.0 | 0.00 | 0.00 | 0.00 | 20 | 1010.8 |
| 20260503201538 | 21 | 313 | 6.4 | 25.7 | 0.00 | 0.00 | 0.00 | 20 | 1010.9 |
| 20260503200052 | 21 | 331 | 19.3 | 32.2 | 0.00 | 0.00 | 0.00 | 21 | 1010.8 |
| 20260503194537 | 20 | 267 | 8.0 | 17.7 | 0.00 | 0.00 | 0.00 | 22 | 1011.1 |
| 20260503193055 | 20 | 333 | 8.0 | 24.1 | 0.00 | 0.00 | 0.00 | 23 | 1011.7 |
| 20260503191543 | 20 | 343 | 19.3 | 30.6 | 0.00 | 0.00 | 0.00 | 23 | 1011.9 |
| 20260503190044 | 20 | 32 | 8.0 | 19.3 | 0.00 | 0.00 | 0.00 | 24 | 1012.0 |
| 20260503184549 | 20 | 315 | 16.1 | 29.0 | 0.00 | 0.00 | 0.00 | 24 | 1012.3 |
| 20260503183043 | 20 | 346 | 8.0 | 29.0 | 0.00 | 0.00 | 0.00 | 25 | 1012.4 |
| 20260503181552 | 19 | 355 | 14.5 | 27.4 | 0.00 | 0.00 | 0.00 | 25 | 1012.5 |
| 20260503180049 | 18 | 296 | 4.8 | 19.3 | 0.00 | 0.00 | 0.00 | 25 | 1012.7 |
| 20260503174545 | 19 | 18 | 14.5 | 24.1 | 0.00 | 0.00 | 0.00 | 25 | 1013.1 |
| 20260503173056 | 18 | 5 | 6.4 | 29.0 | 0.00 | 0.00 | 0.00 | 27 | 1013.3 |
| 20260503171539 | 18 | 26 | 9.7 | 27.4 | 0.00 | 0.00 | 0.00 | 27 | 1013.2 |
| 20260503081543 | 6 | 179 | 4.8 | 11.3 | 0.00 | 0.00 | 0.00 | 75 | 1015.1 |
| 20260503071546 | 6 | 182 | 6.4 | 11.3 | 0.00 | 0.00 | 0.00 | 74 | 1015.3 |